Flag for Australia Weather past 2 weeks in Perth, Western Australia, Australia

Now
45 °F

Clear.


Feels Like: 41 °F
Forecast: 51 / 69 °F
Wind: 6 mph from Northeast

Location: Belmont Perth Airport

Current Time: May 23, 2015 at 5:06:39 AM

Latest Report: May 23, 2015 at 4:30 AM


Visibility: 10 mi

Pressure: 30.04 "Hg

Humidity: 93%

Dew point: 43 °F

Location of PerthLocation

Historic Weather in Perth — Graph

°F

Perth temperature yesterday

Maximum temperature yesterday: 72 °F (at 2:00 PM)
Minimum temperature yesterday: 48 °F (at 10:00 PM)
Average temperature yesterday: 59 °F

Past Weeks' High & Low Weather Summary

 TemperatureHumidityPressure
High79 °F (May 14, 2:30 PM)100% (May 8, 4:00 AM)30.42 "Hg (May 8, 4:00 AM)
Low39 °F (May 8, 7:00 AM)7% (May 16, 1:00 AM)29.62 "Hg (May 17, 12:30 PM)
Average61 °F62%30.19 "Hg
* Reported May 8 3:00 AM — May 23 3:30 AM, Perth, Weather by CustomWeather, © 2015

Note: Actual official high and low records may vary slightly from our data, if they occured in-between our weather recording intervals... More about our weather records

Advertising

Perth weather history for previous 24 hours

 ConditionsComfort  
Time TempWeatherWind HumidityBarometerVisibility
3:30 AM
Sat, May 23
45 °FClear.6 mph100%30.04 "Hg10 mi
3:00 AM46 °FClear.7 mph93%30.04 "Hg10 mi
2:30 AM46 °FClear.6 mph93%30.04 "Hg10 mi
2:00 AM46 °FClear.5 mph93%30.04 "Hg10 mi
1:30 AM45 °FClear.5 mph93%30.04 "Hg10 mi
1:00 AM45 °FClear.5 mph100%30.04 "Hg10 mi
12:30 AM46 °FClear.1 mph93%30.04 "Hg10 mi
12:00 AM46 °FClear.No wind93%30.04 "Hg10 mi
11:30 PM
Fri, May 22
48 °FClear.1 mph94%30.04 "Hg10 mi
11:00 PM48 °FClear.1 mph94%30.04 "Hg10 mi
10:30 PM48 °FClear.5 mph94%30.04 "Hg10 mi
10:00 PM48 °FClear.No wind94%30.04 "Hg10 mi
9:30 PM50 °FClear.1 mph88%30.04 "Hg10 mi
9:00 PM50 °FClear.3 mph94%30.07 "Hg10 mi
8:30 PM54 °FClear.No wind82%30.07 "Hg10 mi
8:00 PM54 °FClear.5 mph82%30.04 "Hg10 mi
7:30 PM55 °FClear.5 mph82%30.07 "Hg10 mi
7:00 PM61 °FClear.8 mph68%30.07 "Hg10 mi
6:30 PM63 °FClear.8 mph64%30.04 "Hg10 mi
6:00 PM63 °FClear.9 mph59%30.04 "Hg10 mi
5:30 PM64 °FClear.9 mph56%30.04 "Hg10 mi
5:00 PM68 °FClear.6 mph53%30.01 "Hg10 mi
4:30 PM72 °FClear.3 mph44%30.01 "Hg10 mi
4:00 PM70 °FSunny.1 mph43%30.01 "Hg10 mi
3:30 PM72 °FSunny.6 mph38%30.01 "Hg10 mi
3:00 PM72 °FSunny.6 mph38%30.01 "Hg10 mi
2:30 PM72 °FSunny.3 mph38%30.01 "Hg10 mi
2:00 PM72 °FSunny.6 mph38%30.01 "Hg10 mi
1:30 PM70 °FSunny.7 mph38%30.04 "Hg10 mi
1:00 PM70 °FSunny.6 mph38%30.04 "Hg10 mi
12:30 PM70 °FSunny.7 mph40%30.07 "Hg10 mi
12:00 PM68 °FSunny.9 mph40%30.07 "Hg10 mi
11:30 AM68 °FSunny.10 mph40%30.09 "Hg10 mi
11:00 AM66 °FSunny.10 mph49%30.09 "Hg10 mi
10:30 AM64 °FSunny.13 mph49%30.09 "Hg10 mi
10:00 AM63 °FSunny.13 mph52%30.12 "Hg10 mi
9:30 AM61 °FSunny.13 mph55%30.12 "Hg10 mi
9:00 AM57 °FSunny.16 mph59%30.12 "Hg10 mi
8:30 AM57 °FSunny.15 mph59%30.12 "Hg10 mi
8:00 AM54 °FSunny.14 mph67%30.12 "Hg10 mi
7:30 AM54 °FSunny.15 mph67%30.12 "Hg10 mi
7:00 AM54 °FPartly sunny.15 mph67%30.12 "HgN/A
6:30 AM54 °FScattered clouds.13 mph63%30.12 "HgN/A
6:00 AM54 °FClear.13 mph67%30.12 "Hg10 mi
5:30 AM54 °FClear.13 mph67%30.12 "Hg10 mi
Weather by CustomWeather, © 2015

See weather overviewHow to use our weather pages